1st Responders/1st Detectors/Storm Spotters Weather Summary for Adair County, KY

Forecast Maps


Reg. NEXRAD Animation


National Fire Danger: Day 1 & 2 Map

Current NWS Watch/Warnings

SPC Convective Day 1 Outlook


Day 2 Outlook

(Click images to enlarge|Page will refresh every 5 minutes)
UK Ag. Weather Center Desktop Severe Weather Service[HERE]
Adair County, KY Hazardous Weather Outlook Webcast
(9 AM to 9 PM Mon-Fri)
[Fast]
[Dial-up]


UKAWC 1st Detectors/1st Responders Precision Weather Forecast For ADAIR County, Kentucky
(based on the NWS County Digital Forecast)

ISSUED AT 14:00 UTC ON SUNDAY JUL 22 2018
DAY SUNDAY
CDT 3HR 10A 11A NOON 1P 2P 3P 4P 5P 6P
MAX/MIN -- -- -- -- -- -- -- -- 77°
TEMP 72° 74° 76° 76° 77° 77° 76° 76° 74°
SKY COVER 93% 92% 92% 82% 82% 77% 83% 84% 88%
Clouds
DEW PT 67° 67° 67° 67° 67° 68° 68° 68° 68°
RH 81% 76% 73% 73% 71% 74% 76% 79% 81%
POP 12HR -- -- -- -- -- -- -- -- --
RAIN/SNOW (liq.equ) -- -- -- 0.04in -- -- -- -- --
SNOWFALL -- -- -- 0in -- -- -- -- --
WIND SPEED(MPH) 8 8 7 8 8 7 7 7 7
WIND Gust(MPH) 13 13 10 13 13 10 10 10 8
WIND DIR W W W W W W W W NW
DEW -- -- -- Lgt Dew -- Lgt Dew Lgt Dew Lgt Dew Lgt Dew
HeatIndex 72 74 76 76 77 77 76 76 74
Rain Showers Chance Chance Chance Chance Chance Chance Chance Likely Likely
Thunder Storm Slight Chance Slight Chance Slight Chance Slight Chance Slight Chance Slight Chance Slight Chance Slight Chance Slight Chance
WIND CHILL -- -- -- -- -- -- -- -- --
SPRAY COND
DRY COND
LIVESTOCK HEATSTRESS 70.62 71.99 73.45 73.45 74.10 74.40 73.73 74.01 72.41



DAY MONDAY TUESDAY WEDNESDAY THURSDAY FRIDAY SATURDAY
CDT 6HR 7P 8P 9P 10P 11P MIDN 1A 2A 3A 4A 5A 6A 7A 8A 9A 10A 11A NOON 1P 2P 3P 4P 5P 6P 7P 8P 9P 10P 1A 4A 7A 10A 1P 4P 7P 1A 7A 1P 7P 1A 7A 1P 7P 1A 7A 1P 7P 1A 7A 1P 7P
MAX/MIN -- -- -- -- -- -- -- -- -- -- -- -- 65° -- -- -- -- -- -- -- -- -- -- 81° -- -- -- -- -- -- 65° -- -- 85° -- -- 67° 85° -- -- 67° 88° -- -- 67° 86° -- -- 65° 85° --
TEMP 74° 72° 70° 70° 68° 67° 67° 67° 67° 67° 65° 65° 65° 67° 68° 70° 72° 76° 77° 79° 81° 81° 81° 79° 77° 76° 74° 72° 68° 67° 67° 76° 83° 85° 79° 70° 68° 85° 81° 70° 68° 85° 83° 70° 68° 85° 81° 70° 67° 85° 79°
SKY COVER 83% 84% 86% 87% 88% 89% 91% 91% 92% 93% 92% 92% 91% 91% 91% 91% 90% 87% 86% 84% 79% 77% 76% 75% 74% 71% 66% 63% 65% 68% 68% 72% 71% 70% 73% 63% 64% 63% 43% 24% 25% 22% 25% 29% 51% 51% 51% 54% 52% 58% 61%
Clouds
DEW PT 68° 68° 68° 68° 67° 67° 67° 67° 67° 67° 65° 65° 65° 67° 68° 68° 68° 68° 68° 68° 68° 68° 68° 68° 68° 68° 67° 67° 67° 65° 67° 70° 70° 70° 72° 68° 68° 72° 70° 68° 68° 68° 70° 67° 67° 68° 68° 67° 67° 68° 68°
RH 84% 90% 93% 96% 96% 99% 100% 100% 100% 99% 100% 100% 99% 100% 100% 93% 87% 78% 73% 71% 66% 67% 67% 69% 73% 78% 82% 87% 97% 96% 100% 78% 64% 63% 76% 96% 100% 65% 72% 93% 100% 56% 67% 93% 97% 56% 67% 90% 96% 59% 71%
POP 12HR 58% -- -- -- -- -- -- -- -- -- -- -- 60% -- -- -- -- -- -- -- -- -- -- -- 48% -- -- -- -- -- 15% -- -- -- 56% -- 34% -- 48% -- 9% -- 8% -- 7% -- 22% -- 22% -- 25%
RAIN/SNOW (liq.equ) 0.16in -- -- -- -- -- 0.08in -- -- -- -- -- 0.00in -- -- -- -- -- 0.02in -- -- -- -- -- 0.02in -- -- -- 0.01in -- 0.00in -- 0.01in -- 0.07in -- -- -- -- -- -- -- -- -- -- -- -- -- -- -- --
SNOWFALL 0in -- -- -- -- -- 0in -- -- -- -- -- 0in -- -- -- -- -- 0in -- -- -- -- -- 0in -- -- -- 0in -- 0in -- 0in -- 0in -- -- -- -- -- -- -- -- -- -- -- -- -- -- -- --
WIND SPEED(MPH) 6 6 5 5 5 2 2 2 2 2 2 5 5 5 5 6 6 6 7 7 7 7 7 7 6 5 2 2 1 2 1 5 6 6 5 1 1 6 2 1 2 7 5 1 1 6 5 2 2 6 2
WIND DIR NW NW NW NW NW NW NW NW N N N N N N N N N N N N N N N N N N N N N N N N N N N N N N N N N N N NE NE N N NE NE NW N
HeatIndex 74 72 70 70 68 67 67 67 67 67 65 65 65 67 68 70 72 76 77 79 84 84 84 82 77 76 74 72 68 67 67 76 88 90 83 70 68 90 85 70 68 90 87 70 68 90 84 70 67 88 79
Rain Showers Likely Likely Likely Likely Chance Chance -- -- -- Slight Chance Slight Chance Slight Chance Chance Chance Chance Chance Chance Chance Chance Chance Chance Chance Chance Chance Slight Chance Slight Chance Slight Chance Slight Chance -- -- Chance Chance Likely Likely Chance Slight Chance Chance Chance -- -- -- -- -- -- Slight Chance Slight Chance Slight Chance -- -- Chance Chance
Thunder Storm Slight Chance Slight Chance Slight Chance -- -- -- -- -- -- -- -- -- Slight Chance Slight Chance Slight Chance Slight Chance Slight Chance Slight Chance Chance Chance Chance Chance Chance Chance -- -- -- -- -- -- Slight Chance Slight Chance Chance Chance Slight Chance -- Chance Chance -- -- -- -- -- -- -- Slight Chance -- -- -- Slight Chance --
WIND CHILL -- -- -- -- -- -- -- -- -- -- -- -- -- -- -- -- -- -- -- -- -- -- -- -- -- -- -- -- -- -- -- -- -- -- -- -- -- -- -- -- -- -- -- -- -- -- -- -- -- -- --
SPRAY COND
DRY COND
LIVESTOCK HEATSTRESS 72.66 71.27 69.57 69.75 67.80 66.95 67.00 67.00 67.00 66.95 65.00 65.00 64.97 67.00 68.00 69.57 71.06 73.92 74.30 75.78 76.85 76.97 76.97 75.56 74.30 73.92 72.50 71.06 67.85 66.82 67.00 73.92 78.21 79.67 76.33 69.75 68.00 79.96 77.58 69.57 68.00 78.66 78.61 69.57 67.85 78.66 76.97 69.38 66.82 79.09 75.78

Click on individual weather variable above in left-hand column (ie., TEMP, RH, QPF 12HR) to view state forecast maps






NWS 48 Hr. Forecast Maps,

Regional Hourly Observations For ADAIR County, Kentucky
Issued at 1000 AM EDT SUN JUL 22 2018
SOUTHEAST KENTUCKY
  
CITY           SKY/WX    TMP DP  RH WIND       PRES   REMARKS
JACKSON        CLOUDY    70  66  87 MISG      29.76R                  
LONDON         CLOUDY    71  66  84 W8        29.78R                  
SOMERSET       CLOUDY    70  68  94 W5        29.79R                  
MIDDLESBORO    CLOUDY    73  66  79 CALM      29.79S                  
MONTICELLO     CLOUDY    69  67  93 W15       29.81R                  


Current NOWCAST not available:
Nowcasts are not issued routinely during fair weather. Only when
precipitation or other significant weather is occuring in this county will these
forecasts be issued. Currently, there is no short term forecast in effect.


Fire Weather Forecast For ADAIR County, KY
Provided by the National Weather Service:

Issued at: Sun Jul 22 10:05:01 EDT 2018


                      Today        Tonight      Mon          

CLOUD COVER           MCldy        MCldy        MCldy        
PRECIP TYPE           tstms        tstms        tstms        
CHANCE PRECIP (%)     60           60           50           
TEMP (24H TREND)      78 (-4)      65 (-1)      82           
RH % (24H TREND)      68 (+8)      100 (+1)     63           
20FTWND-VAL/AM(MPH)   W  6                      Lgt/Var      
20FTWND-RDG/PM(MPH)   W  6         Lgt/Var      Lgt/Var      
PRECIP AMOUNT         0.23         0.11         0.06         
MIXING HGT(FT-AGL/MSL)3826                      4257         
TRANSPORT WND (MPH)   W 13                      N  9         
VENT RATE (KT-FT)     53564                     34587        
DISPERSION            Good                      Marginal     
DSI                   SLGT UNSTBL  SLGT UNSTBL  STBL         
LAL                   3            2            3            
HAINES INDEX          3            3            3            
ADI EARLY             24 FAIR      5 VERY POOR  10 POOR      
ADI LATE              28 FAIR      1 VERY POOR  22 FAIR      
MAX LVORI EARLY       6            8            9            
MAX LVORI LATE        3            10           4            

REMARKS...ADI IS ATMOSPHERIC DISPERSION INDEX BY LAVDAS.        
LVORI IS LOW VISIBILITY OCCURRENCE RISK INDEX.

.TUESDAY...Mostly cloudy with a 50 percent chance of showers and
thunderstorms. Lows in the mid 60s. Highs in the mid 80s. Light
winds. 
.WEDNESDAY...Mostly cloudy. A 50 percent chance of showers and
thunderstorms. Lows in the upper 60s. Highs in the mid 80s. North
winds up to 5 mph. 
.THURSDAY...Partly cloudy. Lows in the upper 60s. Highs in the
upper 80s. Northwest winds up to 5 mph. 
.FRIDAY...Partly cloudy. Lows in the upper 60s. Highs in the mid
80s. North winds up to 5 mph. 
.SATURDAY...Mostly cloudy. Chance of showers. Lows in the mid
60s. Highs in the mid 80s. Northwest winds up to 5 mph. 

SPC's Fire Weather Web Tool (Excellent!), SPC's Fire Weather Outlooks, NWS Fire Weather WEB, Fire Danger Class Map,
Keetch-Byram Drought Index, ROMAN Web, Haines Index ,
WFAS's 10-hr Dead Fuel Moist., WFAS's 100-hr Dead Fuel Moist., Probablity of Ignition, Visual blackness Map, Palmer Drought Index, HPC's Rainfall Forecast Maps


Hazardous Weather Outlook For ADAIR County, Kentucky
350 AM EDT Sun Jul 22 2018 /250 AM CDT Sun Jul 22 2018/

 DAY ONE  Today and Tonight.

No hazardous weather is expected. 

 DAYS TWO THROUGH SEVEN  Monday through Saturday.

Isolated to scattered afternoon and evening storms are expected each
day through the next work week as the weather pattern remains 
unsettled.

 SPOTTER INFORMATION STATEMENT  

Spotter activation is not anticipated.

Latest ADAIR County, Kentucky Watches, Warnings and Advisories.
Additional Drought Info.: UKAWC Drought Page, Kentucky Drought Watch


7-Day Forecast For ADAIR County, KY

TODAY
Mostly cloudy. Chance of showers and slight chance of thunderstorms in the morning, then showers likely and slight chance of thunderstorms in the afternoon. Highs in the upper 70s. West winds 5 to 10 mph. Chance of precipitation 60 percent.

TONIGHT
Showers likely and slight chance of thunderstorms. Lows in the mid 60s. Northwest winds up to 5 mph. Chance of precipitation 60 percent.

MONDAY
Cloudy with a 50 percent chance of showers and thunderstorms. Highs in the lower 80s. North winds up to 5 mph.

MONDAY NIGHT
Partly cloudy with a 20 percent chance of showers. Lows in the mid 60s. North winds up to 5 mph.

TUESDAY
Mostly cloudy with showers likely and chance of thunderstorms. Highs in the mid 80s. North winds up to 5 mph. Chance of precipitation 60 percent.

TUESDAY NIGHT
Partly cloudy with chance of showers and slight chance of thunderstorms. Lows in the upper 60s. Chance of precipitation 50 percent.

WEDNESDAY
Partly cloudy with a 50 percent chance of showers and thunderstorms. Highs in the mid 80s.

WEDNESDAY NIGHT
Partly cloudy. Lows in the upper 60s.

THURSDAY
Mostly sunny. Highs in the upper 80s.

THURSDAY NIGHT
Partly cloudy. Lows in the upper 60s.

FRIDAY
Partly cloudy with a 20 percent chance of showers and thunderstorms. Highs in the upper 80s.

FRIDAY NIGHT
Partly cloudy with a 20 percent chance of showers. Lows in the mid 60s.

SATURDAY
Partly cloudy with chance of showers and slight chance of thunderstorms. Highs in the mid 80s. Chance of precipitation 30 percent.

Ag Weather Center, Department of Biosystems & Agricultural Engineering, University of Kentucky